King Salmon, AK

9:21 PM AKST on January 19, 2018 (GMT -0900)
King Salmon

Weather History for PAKN - October, 2012

Change the Weather History Date:

Thursday, October 25, 2012

  Actual Average Record
Temperature  
Mean Temperature 26 °F 29 °F  
Max Temperature 40 °F 37 °F 58 °F (1938)
Min Temperature 11 °F 22 °F -12 °F (1983)
Degree Days  
Heating Degree Days 39 36  
Month to date heating degree days 765 754  
Since 1 July heating degree days 2088 1892  
Cooling Degree Days 0 0  
Month to date cooling degree days 0 0  
Year to date cooling degree days 0 1  
Moisture  
Dew Point 17 °F    
Average Humidity 0    
Maximum Humidity 0    
Minimum Humidity 0    
Precipitation  
Precipitation 0.00 in 0.05 in 0.91 in (2011)
Month to date precipitation 1.85 1.76  
Year to date precipitation 21.90 16.55  
Snow  
Snow 0.00 in 0.10 in 3.10 in (1998)
Month to date snowfall 11.1 1.8  
Since 1 July snowfall 11.1 1.9  
Since 1 September snowfall 11.1 1.9  
Snow Depth 1.00 in    
Sea Level Pressure  
Sea Level Pressure 30.40 in    
Wind  
Wind Speed 6 mph (North)    
Max Wind Speed 16 mph    
Max Gust Speed 18 mph    
Visibility 10 miles    
Events      
T = Trace of Precipitation, MM = Missing Value Source: NWS Daily Summary

Daily Weather History Graph

Daily Weather History Graph

Search for Another Location

Airport or City:

Trip Planner

Search our weather history database for the weather conditions in past years. The results will help you decide how hot, cold, wet, or windy it might be!

Date:

Astronomy

Oct. 25, 2012 Rise Set
Actual Time 9:28 AM AKDT 6:51 PM AKDT
Civil Twilight 8:46 AM AKDT 7:33 PM AKDT
Nautical Twilight 7:59 AM AKDT 8:20 PM AKDT
Astronomical Twilight 7:13 AM AKDT 9:06 PM AKDT
Moon 5:21 PM AKDT (10/25) 4:50 AM AKDT (10/25)
Length of Visible Light 10h 47m
Length of Day
9h 23m
Waxing Gibbous, 85% of the Moon is Illuminated
Oct 25
Waxing Gibbous
Oct 29
Full
Nov 6
Last Quarter
Nov 13
New
Nov 20
First Quarter

Hourly Weather History & Observations

Time (AKDT) Temp. Windchill Dew Point Humidity Pressure Visibility Wind Dir Wind Speed Gust Speed Precip Events Conditions
12:54 AM 19.0 °F 7.5 °F 10.9 °F 71% 30.36 in 10.0 mi NNE 10.4 mph - N/A   Clear
1:54 AM 19.0 °F - 12.9 °F 77% 30.38 in 10.0 mi Calm Calm - N/A   Clear
2:54 AM 15.1 °F - 10.9 °F 84% 30.38 in 10.0 mi Calm Calm - N/A   Clear
3:54 AM 14.0 °F 2.9 °F 10.0 °F 84% 30.38 in 10.0 mi North 8.1 mph - N/A   Clear
4:54 AM 10.9 °F 1.4 °F 8.1 °F 88% 30.38 in 10.0 mi NNW 5.8 mph - N/A   Clear
5:54 AM 12.0 °F 1.5 °F 10.9 °F 95% 30.38 in 10.0 mi North 6.9 mph - N/A   Clear
6:54 AM 12.0 °F 0.5 °F 9.0 °F 88% 30.40 in 10.0 mi North 8.1 mph - N/A   Clear
7:54 AM 12.0 °F 0.5 °F 10.0 °F 92% 30.40 in 10.0 mi North 8.1 mph - N/A   Clear
8:54 AM 12.9 °F 0.7 °F 10.9 °F 92% 30.40 in 10.0 mi North 9.2 mph - N/A   Partly Cloudy
9:54 AM 14.0 °F - 10.9 °F 88% 30.40 in 10.0 mi Calm Calm - N/A   Partly Cloudy
10:54 AM 18.0 °F 12.7 °F 14.0 °F 84% 30.41 in 10.0 mi WNW 3.5 mph - N/A   Clear
11:54 AM 26.1 °F 16.2 °F 19.0 °F 75% 30.42 in 10.0 mi North 10.4 mph - N/A   Partly Cloudy
12:54 PM 30.9 °F 22.2 °F 21.0 °F 67% 30.42 in 10.0 mi North 10.4 mph - N/A   Partly Cloudy
1:54 PM 36.0 °F 30.3 °F 23.0 °F 59% 30.42 in 10.0 mi North 6.9 mph - N/A   Partly Cloudy
2:54 PM 36.0 °F 29.6 °F 25.0 °F 64% 30.42 in 10.0 mi North 8.1 mph - N/A   Partly Cloudy
3:54 PM 37.9 °F 32.1 °F 27.0 °F 65% 30.41 in 10.0 mi NNE 8.1 mph - N/A   Scattered Clouds
4:54 PM 39.0 °F 34.8 °F 28.0 °F 65% 30.40 in 10.0 mi North 5.8 mph - N/A   Scattered Clouds
5:54 PM 39.9 °F 36.7 °F 27.0 °F 60% 30.40 in 10.0 mi North 4.6 mph - N/A   Partly Cloudy
6:54 PM 32.0 °F 24.2 °F 25.0 °F 75% 30.41 in 10.0 mi NNE 9.2 mph - N/A   Partly Cloudy
7:54 PM 28.9 °F 22.8 °F 21.9 °F 75% 30.41 in 10.0 mi North 5.8 mph - N/A   Partly Cloudy
8:54 PM 26.1 °F 18.4 °F 21.0 °F 81% 30.42 in 10.0 mi North 6.9 mph - N/A   Partly Cloudy
9:54 PM 23.0 °F 17.0 °F 19.0 °F 85% 30.41 in 10.0 mi North 4.6 mph - N/A   Partly Cloudy
10:54 PM 23.0 °F - 19.9 °F 88% 30.42 in 10.0 mi Calm Calm - N/A   Partly Cloudy
11:54 PM 19.9 °F 11.1 °F 17.1 °F 89% 30.43 in 10.0 mi NNW 6.9 mph - N/A   Partly Cloudy